Lid_Strength_Index
1 1 1 0 0 -0 -0 -1 -1 -1 -1 -1 -1 -1 -1 -1 0 2 5 3 2 -1 1 4 4 4 3 4 5 6 8 10 10 10 9 7 8 7 7 7 7 6 6 7 6
1 1 1 1 1 0 -0 -0 -1 -1 -1 -1 -1 -1 -1 -0 3 5 1 -2 -2 -1 4 5 6 5 5 5 5 7 8 10 9 8 8 7 7 7 7 7 7 7 7 6 6
1 1 1 1 1 1 0 -0 -0 -1 -1 -1 -1 -1 -0 0 5 6 -1 -1 -2 0 4 4 4 5 7 6 6 8 9 9 9 8 7 8 7 7 7 8 7 7 7 7 7
0 1 1 1 1 1 0 -0 -0 -1 -1 -1 -1 -1 -0 3 9 4 -1 -1 -2 3 4 5 6 7 8 8 7 9 8 8 8 7 8 8 7 8 7 8 8 8 8 8 8
0 1 1 1 1 1 0 0 -0 -1 -1 -1 -1 -1 3 5 5 1 -1 -1 3 4 5 5 7 7 9 8 8 8 8 8 7 7 8 8 8 8 9 9 9 9 9 9 9
0 1 1 1 1 1 1 0 0 -0 -0 -1 -1 0 4 7 2 1 3 4 4 4 5 5 6 6 8 8 9 8 8 8 8 8 8 9 9 9 10 9 9 9 10 10 10
0 0 1 1 1 0 0 0 0 -0 -0 -0 -0 2 5 5 1 1 4 4 4 5 6 5 5 7 7 9 8 8 9 8 8 9 9 8 11 10 10 9 10 10 11 11 11
1 1 1 0 0 0 0 0 -0 -0 -0 -0 0 3 5 4 1 2 3 4 4 4 5 5 5 6 7 7 9 10 10 10 9 9 10 9 10 11 10 9 10 11 11 11 11
2 1 1 1 1 1 1 0 0 -0 0 0 3 4 6 3 5 3 4 5 6 6 6 6 6 8 8 10 11 11 11 12 10 9 10 10 10 10 10 10 11 11 11 11 11
1 2 2 1 1 1 1 1 0 1 2 2 4 6 5 7 7 6 5 5 7 6 7 7 8 9 10 10 12 11 12 12 11 10 10 11 10 11 11 10 11 11 12 12 13
2 2 1 2 2 2 2 2 4 6 5 6 6 7 8 7 7 8 7 8 8 8 10 10 11 12 10 9 9 10 11 12 11 11 11 10 10 10 11 11 12 12 12 13 13
1 2 1 1 1 2 2 5 5 6 8 6 6 7 7 7 10 9 7 9 10 11 11 12 13 10 10 10 11 11 12 12 11 11 12 11 12 11 12 12 12 13 13 14 14
1 1 1 1 2 2 4 4 4 5 7 7 7 7 6 8 8 9 8 9 10 12 12 12 11 11 12 13 13 13 13 13 13 12 11 12 13 13 15 15 14 14 14 14 14
1 1 1 1 3 4 5 3 3 5 10 9 9 7 9 7 9 8 7 9 11 12 12 12 11 13 13 13 12 14 13 13 13 13 14 13 15 13 14 15 16 15 14 14 14
0 1 1 2 4 5 4 3 5 6 20 9 10 8 9 9 10 11 9 10 11 12 12 12 13 13 13 13 12 13 12 13 14 14 14 15 15 13 16 16 16 15 14 14 14
1 1 1 2 3 4 4 3 4 13 19 11 11 11 11 11 12 11 11 9 9 12 12 12 11 12 12 13 12 13 14 14 15 15 18 14 15 13 16 15 15 15 15 15 15
0 1 2 1 4 4 2 5 13 18 10 12 12 11 10 13 13 12 13 12 13 14 14 12 13 12 12 13 13 13 14 17 19 19 18 16 16 13 13 13 13 15 15 14 15
0 1 2 1 3 2 3 9 17 13 12 12 13 13 12 13 13 13 13 13 11 12 13 14 15 13 12 11 13 14 13 16 21 20 17 17 18 14 14 13 12 13 14 14 15
0 0 1 1 3 3 7 15 15 12 10 13 13 14 14 14 12 13 13 12 11 11 13 14 14 12 13 13 11 15 16 13 18 21 18 15 14 15 15 15 14 14 14 15 15
1 3 3 1 2 4 10 13 11 9 10 12 13 12 13 14 14 14 14 12 12 11 9 12 14 14 14 12 13 13 12 16 15 19 20 16 16 14 16 15 14 14 14 14 14
2 6 2 1 2 7 13 12 10 8 9 12 12 12 12 14 13 14 12 12 11 12 10 12 13 15 14 14 14 14 15 14 14 15 18 18 16 12 12 13 14 14 13 13 14
4 9 3 1 9 9 12 11 8 9 8 10 10 10 12 13 14 14 14 12 11 11 13 11 13 15 15 14 13 12 13 13 15 18 16 16 15 14 13 12 12 13 13 13 13
6 6 3 3 12 12 9 9 9 9 9 10 11 9 9 11 14 12 11 11 12 11 12 12 14 17 15 15 14 15 14 13 12 14 16 17 15 14 13 12 12 12 12 12 13
7 10 7 7 6 10 11 11 11 8 9 9 10 9 10 12 10 13 12 12 12 11 11 11 14 15 17 13 13 16 14 14 13 15 15 15 13 14 13 13 12 12 11 12 13
7 9 9 11 10 9 9 10 12 12 9 8 10 10 11 14 13 13 11 14 13 12 11 12 15 13 12 15 15 15 14 14 14 13 14 13 13 12 12 12 11 11 11 12 13
7 9 9 11 10 10 10 11 11 10 10 11 12 10 10 13 12 14 12 13 13 14 12 13 15 15 15 17 16 16 15 14 13 13 13 14 14 10 10 11 11 11 12 13 13
6 7 8 10 11 11 12 11 11 10 11 10 11 11 12 12 11 13 11 11 12 14 14 15 15 15 17 19 17 17 15 15 14 13 13 15 12 13 13 12 11 11 11 12 12